Weather History for Winchester, VA

Change the Weather History Date:

Monday, February 13, 2012

  Actual Average Record
Temperature  
Mean Temperature 35 °F -  
Max Temperature 44 °F 45 °F 86 °F (1997)
Min Temperature 26 °F 27 °F 1 °F (1983)
Degree Days  
Heating Degree Days 30    
Moisture  
Dew Point 18 °F    
Average Humidity 52    
Maximum Humidity 80    
Minimum Humidity 37    
Precipitation  
Precipitation 0.00 in - - ()
Sea Level Pressure  
Sea Level Pressure 30.11 in    
Wind  
Wind Speed 10 mph (West)    
Max Wind Speed 21 mph    
Max Gust Speed 23 mph    
Visibility 10 miles    
Events      
Averages and records for this station are not official NWS values.
T = Trace of Precipitation, MM = Missing Value Source: NWS Daily Summary

Daily Weather History Graph

Daily Weather History Graph

Search for Another Location

Airport:

Trip Planner

Search our weather history database for the weather conditions in past years. The results will help you decide how hot, cold, wet, or windy it might be!

Date:

Astronomy

Feb. 13, 2012 Rise Set
Actual Time 7:07 AM EST 5:46 PM EST
Civil Twilight 6:39 AM EST 6:14 PM EST
Nautical Twilight 6:08 AM EST 6:45 PM EST
Astronomical Twilight 5:37 AM EST 7:16 PM EST
Moon No Moon Rise 10:08 AM EST (2/13)
Length of Visible Light 11h 34m
Length of Day
10h 39m
Waning Gibbous, 62% of the Moon is Illuminated
Feb 13
Waning Gibbous
Feb 14
Last Quarter
Feb 21
New
Feb 29
First Quarter
Mar 8
Full

Hourly Weather History & Observations

Time (EST) Temp. Windchill Dew Point Humidity Pressure Visibility Wind Dir Wind Speed Gust Speed Precip Events Conditions
12:15 AM 26.6 °F 16.2 °F 14.0 °F 59% 30.12 in 10.0 mi West 11.5 mph - N/A   Clear
12:55 AM 26.6 °F 15.2 °F 14.0 °F 59% 30.11 in 10.0 mi West 13.8 mph 19.6 mph N/A   Scattered Clouds
1:15 AM 28.4 °F 19.1 °F 14.0 °F 55% 30.12 in 10.0 mi West 10.4 mph 19.6 mph N/A   Clear
1:35 AM 28.4 °F 18.5 °F 14.0 °F 55% 30.11 in 10.0 mi WNW 11.5 mph - N/A   Clear
1:55 AM 26.6 °F 15.2 °F 15.8 °F 64% 30.11 in 10.0 mi West 13.8 mph 19.6 mph N/A   Scattered Clouds
2:15 AM 28.4 °F 17.0 °F 15.8 °F 59% 30.12 in 10.0 mi West 15.0 mph 21.9 mph N/A   Clear
2:35 AM 28.4 °F 17.0 °F 15.8 °F 59% 30.11 in 10.0 mi WNW 15.0 mph 19.6 mph N/A   Scattered Clouds
2:55 AM 28.4 °F 17.5 °F 15.8 °F 59% 30.12 in 10.0 mi WNW 13.8 mph 20.7 mph N/A   Scattered Clouds
3:15 AM 28.4 °F 17.5 °F 15.8 °F 59% 30.12 in 10.0 mi West 13.8 mph - N/A   Clear
3:35 AM 28.4 °F 16.6 °F 15.8 °F 59% 30.12 in 10.0 mi West 16.1 mph 23.0 mph N/A   Clear
3:55 AM 28.4 °F 17.5 °F 15.8 °F 59% 30.12 in 10.0 mi West 13.8 mph 20.7 mph N/A   Scattered Clouds
4:15 AM 28.4 °F 17.0 °F 14.0 °F 55% 30.13 in 10.0 mi WNW 15.0 mph 23.0 mph N/A   Scattered Clouds
4:35 AM 28.4 °F 19.1 °F 14.0 °F 55% 30.14 in 10.0 mi West 10.4 mph 19.6 mph N/A   Clear
4:55 AM 28.4 °F 21.2 °F 14.0 °F 55% 30.15 in 10.0 mi WSW 6.9 mph - N/A   Scattered Clouds
5:15 AM 26.6 °F 19.1 °F 14.0 °F 59% 30.16 in 10.0 mi SSW 6.9 mph - N/A   Scattered Clouds
5:35 AM 26.6 °F 20.0 °F 14.0 °F 59% 30.16 in 10.0 mi SSW 5.8 mph - N/A   Clear
5:55 AM 26.6 °F 16.8 °F 14.0 °F 59% 30.16 in 10.0 mi SSW 10.4 mph - N/A   Clear
6:15 AM 28.4 °F 20.4 °F 14.0 °F 55% 30.17 in 10.0 mi SSW 8.1 mph - N/A   Scattered Clouds
6:35 AM 28.4 °F 19.1 °F 14.0 °F 55% 30.17 in 10.0 mi SW 10.4 mph - N/A   Scattered Clouds
6:55 AM 28.4 °F 19.1 °F 14.0 °F 55% 30.18 in 10.0 mi SW 10.4 mph - N/A   Clear
7:15 AM 28.4 °F 19.7 °F 14.0 °F 55% 30.18 in 10.0 mi WSW 9.2 mph - N/A   Clear
7:35 AM 28.4 °F 19.1 °F 14.0 °F 55% 30.18 in 10.0 mi SW 10.4 mph 16.1 mph N/A   Scattered Clouds
7:55 AM 30.2 °F 20.2 °F 14.0 °F 51% 30.18 in 10.0 mi SW 12.7 mph - N/A   Clear
8:15 AM 30.2 °F 20.2 °F 14.0 °F 51% 30.18 in 10.0 mi WSW 12.7 mph 17.3 mph N/A   Clear
8:35 AM 32.0 °F 21.2 °F 14.0 °F 48% 30.18 in 10.0 mi West 16.1 mph 21.9 mph N/A   Scattered Clouds
8:55 AM 32.0 °F 19.8 °F 15.8 °F 51% 30.16 in 10.0 mi WNW 20.7 mph - N/A   Scattered Clouds
9:15 AM 32.0 °F 20.5 °F 15.8 °F 51% 30.17 in 10.0 mi West 18.4 mph - N/A   Clear
9:35 AM 33.8 °F 23.9 °F 15.8 °F 48% 30.17 in 10.0 mi West 15.0 mph - N/A   Clear
9:55 AM 33.8 °F 26.4 °F 14.0 °F 44% 30.17 in 10.0 mi West 9.2 mph 19.6 mph N/A   Clear
10:15 AM 35.6 °F 28.0 °F 14.0 °F 41% 30.17 in 10.0 mi WNW 10.4 mph 18.4 mph N/A   Clear
10:35 AM 35.6 °F 26.6 °F 14.0 °F 41% 30.16 in 10.0 mi WNW 13.8 mph 19.6 mph N/A   Scattered Clouds
10:55 AM 37.4 °F 29.3 °F 15.8 °F 41% 30.16 in 10.0 mi West 12.7 mph 17.3 mph N/A   Scattered Clouds
11:15 AM 37.4 °F 28.5 °F 17.6 °F 45% 30.15 in 10.0 mi West 15.0 mph - N/A   Scattered Clouds
11:35 AM 39.2 °F 32.5 °F 17.6 °F 42% 30.15 in 10.0 mi WNW 10.4 mph - N/A   Scattered Clouds
11:55 AM 41.0 °F 33.5 °F 17.6 °F 39% 30.14 in 10.0 mi West 13.8 mph - N/A   Clear
12:15 PM 41.0 °F 34.3 °F 19.4 °F 42% 30.13 in 10.0 mi West 11.5 mph - N/A   Clear
12:35 PM 41.0 °F 34.3 °F 19.4 °F 42% 30.12 in 10.0 mi WNW 11.5 mph 18.4 mph N/A   Clear
12:55 PM 42.8 °F 36.6 °F 21.2 °F 42% 30.11 in 10.0 mi WNW 11.5 mph - N/A   Clear
1:15 PM 42.8 °F 37.5 °F 19.4 °F 39% 30.10 in 10.0 mi WNW 9.2 mph - N/A   Clear
1:35 PM 42.8 °F 38.6 °F 19.4 °F 39% 30.09 in 10.0 mi West 6.9 mph - N/A   Scattered Clouds
1:55 PM 44.6 °F 38.8 °F 21.2 °F 39% 30.09 in 10.0 mi West 11.5 mph - N/A   Scattered Clouds
2:15 PM 44.6 °F 38.1 °F 19.4 °F 37% 30.08 in 10.0 mi WNW 13.8 mph - N/A   Scattered Clouds
2:35 PM 44.6 °F 40.2 °F 21.2 °F 39% 30.07 in 10.0 mi WNW 8.1 mph 11.5 mph N/A   Clear
2:55 PM 44.6 °F 39.2 °F 19.4 °F 37% 30.08 in 10.0 mi WNW 10.4 mph 16.1 mph N/A   Clear
3:15 PM 44.6 °F 40.7 °F 21.2 °F 39% 30.07 in 10.0 mi West 6.9 mph 10.4 mph N/A   Clear
3:35 PM 44.6 °F 39.2 °F 21.2 °F 39% 30.07 in 10.0 mi NW 10.4 mph - N/A   Clear
3:55 PM 44.6 °F 40.2 °F 19.4 °F 37% 30.07 in 10.0 mi NW 8.1 mph - N/A   Clear
4:15 PM 44.6 °F 41.4 °F 21.2 °F 39% 30.06 in 10.0 mi WNW 5.8 mph - N/A   Clear
4:35 PM 42.8 °F 38.6 °F 21.2 °F 42% 30.07 in 10.0 mi WNW 6.9 mph - N/A   Clear
4:55 PM 42.8 °F 38.0 °F 21.2 °F 42% 30.06 in 10.0 mi NW 8.1 mph - N/A   Scattered Clouds
5:15 PM 41.0 °F 38.0 °F 21.2 °F 45% 30.07 in 10.0 mi WNW 4.6 mph - N/A   Scattered Clouds
5:35 PM 41.0 °F 38.0 °F 19.4 °F 42% 30.07 in 10.0 mi NW 4.6 mph - N/A   Scattered Clouds
5:55 PM 41.0 °F 39.0 °F 19.4 °F 42% 30.07 in 10.0 mi NW 3.5 mph - N/A   Clear
6:15 PM 41.0 °F 39.0 °F 19.4 °F 42% 30.07 in 10.0 mi NNW 3.5 mph - N/A   Scattered Clouds
6:35 PM 39.2 °F 35.0 °F 19.4 °F 45% 30.08 in 10.0 mi NW 5.8 mph - N/A   Scattered Clouds
6:55 PM 37.4 °F - 19.4 °F 48% 30.08 in 10.0 mi Calm Calm - N/A   Scattered Clouds
7:15 PM 37.4 °F - 19.4 °F 48% 30.08 in 10.0 mi Calm Calm - N/A   Clear
7:35 PM 35.6 °F - 19.4 °F 52% 30.08 in 10.0 mi Calm Calm - N/A   Scattered Clouds
7:55 PM 33.8 °F - 21.2 °F 60% 30.08 in 10.0 mi Calm Calm - N/A   Clear
8:15 PM 33.8 °F - 19.4 °F 56% 30.08 in 10.0 mi Calm Calm - N/A   Clear
8:35 PM 32.0 °F - 21.2 °F 64% 30.07 in 10.0 mi Calm Calm - N/A   Clear
8:55 PM 32.0 °F - 21.2 °F 64% 30.06 in 10.0 mi Calm Calm - N/A   Scattered Clouds
9:15 PM 32.0 °F - 21.2 °F 64% 30.06 in 10.0 mi Calm Calm - N/A   Mostly Cloudy
9:35 PM 30.2 °F - 21.2 °F 69% 30.07 in 10.0 mi Calm Calm - N/A   Mostly Cloudy
9:55 PM 30.2 °F - 21.2 °F 69% 30.08 in 7.0 mi Calm Calm - N/A   Scattered Clouds
10:15 PM 32.0 °F - 21.2 °F 64% 30.07 in 10.0 mi Calm Calm - N/A   Scattered Clouds
10:35 PM 32.0 °F - 23.0 °F 69% 30.07 in 10.0 mi Calm Calm - N/A   Scattered Clouds
10:55 PM 32.0 °F - 23.0 °F 69% 30.08 in 10.0 mi Calm Calm - N/A   Scattered Clouds
11:15 PM 30.2 °F - 24.8 °F 80% 30.08 in 7.0 mi Calm Calm - N/A   Mostly Cloudy
11:35 PM 32.0 °F - 23.0 °F 69% 30.08 in 10.0 mi Calm Calm - N/A   Overcast
11:55 PM 32.0 °F - 24.8 °F 75% 30.08 in 10.0 mi Calm Calm - N/A   Overcast